Home   Weather   Creighton   Past weeks

Flag for Canada Past Weather in Creighton, Saskatchewan, Canada — Yesterday and Last 2 Weeks

Now
28 °F

Light snow. Overcast.


Feels Like: 20 °F
Forecast: 22 / 28 °F
Wind: 8 mph from Southeast

Location: The Pas

Current Time: Dec 3, 2016 at 10:02:47 pm

Latest Report: Dec 3, 2016 at 9:00 pm


Visibility: 15 mi

Pressure: 29.78 "Hg

Humidity: 93%

Dew Point: 27 °F

Location of CreightonLocation

Past Weather in Creighton — Graph

°F

Creighton Temperature Yesterday

Maximum temperature yesterday: 28 °F (at 11:00 pm)
Minimum temperature yesterday: 16 °F (at 9:45 am)
Average temperature yesterday: 23 °F

High & Low Weather Summary for the Past Weeks

 TemperatureHumidityPressure
High34 °F (Nov 26, 12:00 pm)100% (Dec 2, 10:00 pm)30.51 "Hg (Dec 2, 10:00 pm)
Low9 °F (Nov 19, 9:00 pm)50% (Nov 18, 10:00 pm)29.49 "Hg (Nov 28, 5:00 am)
Average27 °F86%30.03 "Hg
* Reported Nov 18 8:00 pm — Dec 3 8:00 pm, Creighton, Weather by CustomWeather, © 2016

Note: Actual official high and low records may vary slightly from our data, if they occured in-between our weather recording intervals... More about our weather records

Advertising

Creighton Weather History for the Previous 24 Hours

Scroll right to see more
 ConditionsComfort  
Time TempWeatherWind HumidityBarometerVisibility
8:00 pm
Sat, Dec 3
28 °FLight snow. Low clouds.8 mph93%29.79 "Hg15 mi
7:00 pm28 °FLight snow. Low clouds.10 mph86%29.81 "Hg15 mi
6:00 pm28 °FLight snow. Low clouds.13 mph86%29.82 "Hg15 mi
5:00 pm28 °FLight snow. Low clouds.15 mph86%29.83 "Hg15 mi
4:00 pm28 °FLight snow. More clouds than sun.17 mph86%29.83 "Hg15 mi
3:00 pm28 °FLight snow. More clouds than sun.15 mph93%29.84 "Hg15 mi
2:00 pm28 °FLight snow. More clouds than sun.9 mph93%29.85 "Hg15 mi
1:00 pm28 °FLight snow. More clouds than sun.13 mph86%29.86 "Hg15 mi
12:00 pm28 °FOvercast.14 mph86%29.89 "Hg15 mi
11:00 am28 °FMore clouds than sun.12 mph86%29.92 "Hg15 mi
10:00 am28 °FMore clouds than sun.13 mph80%29.93 "Hg15 mi
9:00 am28 °FMostly cloudy.12 mph86%29.94 "Hg15 mi
8:00 am28 °FLight snow. Low clouds.13 mph86%29.96 "Hg15 mi
7:00 am28 °FLight snow. Low clouds.10 mph86%29.97 "Hg15 mi
6:00 am28 °FLight snow. Low clouds.13 mph93%29.99 "Hg15 mi
5:00 am28 °FLight snow. Low clouds.14 mph93%30.01 "Hg15 mi
4:00 am28 °FLight snow. Low clouds.10 mph93%30.03 "Hg15 mi
3:00 am28 °FOvercast.12 mph93%30.04 "Hg15 mi
2:00 am28 °FLow clouds.10 mph93%30.06 "Hg15 mi
1:00 am28 °FOvercast.12 mph93%30.09 "Hg15 mi
12:00 am28 °FOvercast.8 mph93%30.11 "Hg15 mi
11:00 pm
Fri, Dec 2
28 °FLow clouds.9 mph93%30.12 "Hg15 mi
10:00 pm27 °FLow clouds.9 mph100%30.13 "Hg15 mi
Weather by CustomWeather, © 2016

See weather overviewHow to use our weather pages